When you browse on this site, cookies collect data to enhance your experience and personalize the content and advertising you see.
Visit our Privacy Policy to learn more. By continuing to use the site, you agree to this use of cookies and data.
  • In Hungary
  • List of Countries
  • For 7 days
  • Water Temperature
  • Satellite Maps
  • Weather Map
  • News
  • Weather Widgets
  • user-avatar
    Login

    Hourly Weather Kashtanove

    Today, 20 February, Wednesday

    Time Temperature Precipitation Wind Pressure Humidity
    00:00 +1°C° 0 mm 1 mps 738 mmHg 77%
    01:00 +1°C° 0 mm 1 mps 738 mmHg 76%
    02:00 +1°C° 0 mm 1 mps 737 mmHg 77%
    03:00 +1°C° 0 mm 1 mps 737 mmHg 76%
    04:00 +1°C° 0 mm 1 mps 737 mmHg 75%
    05:00 +1°C° 0 mm 1 mps 736 mmHg 74%
    06:00 +2°C° 0 mm 1 mps 736 mmHg 71%
    07:00 +1°C° 0 mm 2 mps 736 mmHg 68%
    08:00 +2°C° 0 mm 2 mps 736 mmHg 65%
    09:00 +4°C° 0 mm 2 mps 736 mmHg 59%
    10:00 +5°C° 0 mm 2 mps 736 mmHg 52%
    11:00 +7°C° 0 mm 2 mps 736 mmHg 45%
    12:00 +7°C° 0 mm 2 mps 736 mmHg 46%
    13:00 +8°C° 0 mm 3 mps 735 mmHg 46%
    14:00 +8°C° 0 mm 3 mps 735 mmHg 47%
    15:00 +7°C° 0 mm 3 mps 735 mmHg 54%
    16:00 +6°C° 0 mm 2 mps 734 mmHg 61%
    17:00 +5°C° 0 mm 2 mps 734 mmHg 69%
    18:00 +5°C° 0 mm 2 mps 734 mmHg 72%
    19:00 +4°C° 0 mm 2 mps 734 mmHg 75%
    20:00 +3°C° 0 mm 2 mps 734 mmHg 78%
    21:00 +3°C° 0 mm 2 mps 733 mmHg 79%
    22:00 +3°C° 0 mm 2 mps 733 mmHg 81%
    23:00 +3°C° 0 mm 2 mps 733 mmHg 82%

    Tomorrow, 21 February, Thursday

    Time Temperature Precipitation Wind Pressure Humidity
    00:00 +4°C° 0 mm 2 mps 733 mmHg 85%
    01:00 +4°C° 0 mm 2 mps 733 mmHg 88%
    02:00 +4°C° 0 mm 2 mps 734 mmHg 90%
    03:00 +4°C° 0 mm 2 mps 734 mmHg 92%
    04:00 +4°C° 0 mm 2 mps 734 mmHg 94%
    05:00 +4°C° 0 mm 2 mps 734 mmHg 96%
    06:00 +4°C° 0 mm 2 mps 734 mmHg 93%
    07:00 +4°C° 0 mm 2 mps 735 mmHg 90%
    08:00 +4°C° 0 mm 2 mps 735 mmHg 87%
    09:00 +3°C° 0 mm 3 mps 735 mmHg 79%
    10:00 +4°C° 0 mm 4 mps 735 mmHg 70%
    11:00 +5°C° 0 mm 5 mps 736 mmHg 62%
    12:00 +5°C° 0 mm 5 mps 736 mmHg 61%
    13:00 +4°C° 0 mm 6 mps 735 mmHg 60%
    14:00 +4°C° 0 mm 6 mps 735 mmHg 59%
    15:00 +3°C° 0 mm 6 mps 735 mmHg 63%
    16:00 +3°C° 0 mm 6 mps 735 mmHg 66%
    17:00 +2°C° 0 mm 6 mps 735 mmHg 70%
    18:00 +2°C° 0 mm 5 mps 736 mmHg 71%
    19:00 +3°C° 0 mm 4 mps 736 mmHg 73%
    20:00 +1°C° 0 mm 4 mps 736 mmHg 74%
    21:00 +2°C° 0 mm 3 mps 737 mmHg 75%
    22:00 +2°C° 0 mm 3 mps 737 mmHg 76%
    23:00 +3°C° 0 mm 2 mps 737 mmHg 76%

    Day after tomorrow, 22 February, Friday

    Time Temperature Precipitation Wind Pressure Humidity
    00:00 +2°C° 0 mm 2 mps 737 mmHg 77%
    01:00 +2°C° 0 mm 2 mps 737 mmHg 78%
    02:00 +3°C° 0 mm 1 mps 736 mmHg 79%
    03:00 +2°C° 0 mm 2 mps 736 mmHg 80%
    04:00 +2°C° 0 mm 2 mps 736 mmHg 81%
    05:00 +2°C° 0 mm 2 mps 735 mmHg 83%
    06:00 +2°C° 0 mm 2 mps 735 mmHg 81%
    07:00 +3°C° 0 mm 2 mps 735 mmHg 79%
    08:00 +3°C° 0 mm 2 mps 735 mmHg 77%
    09:00 +3°C° 0.2 mm 3 mps 734 mmHg 75%
    10:00 +4°C° 0.2 mm 3 mps 734 mmHg 72%
    11:00 +5°C° 0.2 mm 3 mps 733 mmHg 70%
    12:00 +5°C° 0.6 mm 4 mps 733 mmHg 73%
    13:00 +5°C° 0.6 mm 4 mps 732 mmHg 77%
    14:00 +5°C° 0.6 mm 4 mps 731 mmHg 80%
    15:00 +5°C° 1 mm 4 mps 731 mmHg 82%
    16:00 +4°C° 1 mm 4 mps 730 mmHg 85%
    17:00 +4°C° 1 mm 4 mps 730 mmHg 87%
    18:00 +4°C° 1.3 mm 4 mps 730 mmHg 89%
    19:00 +4°C° 1.3 mm 4 mps 729 mmHg 91%
    20:00 +3°C° 1.3 mm 4 mps 729 mmHg 92%
    21:00 +3°C° 2.2 mm 4 mps 729 mmHg 93%
    22:00 +1°C° 2.2 mm 4 mps 729 mmHg 94%
    23:00 +1°C° 2.2 mm 4 mps 729 mmHg 95%

    23 February, Saturday

    Time Temperature Precipitation Wind Pressure Humidity
    00:00 -1°C° 1.5 mm 5 mps 730 mmHg 94%
    01:00 -4°C° 1.5 mm 5 mps 730 mmHg 93%
    02:00 -6°C° 1.5 mm 6 mps 730 mmHg 93%
    03:00 -8°C° 0.5 mm 6 mps 730 mmHg 92%
    04:00 -9°C° 0.5 mm 6 mps 730 mmHg 91%
    05:00 -11°C° 0.5 mm 7 mps 731 mmHg 90%
    06:00 -12°C° 0.1 mm 7 mps 731 mmHg 89%
    07:00 -12°C° 0.1 mm 7 mps 732 mmHg 88%
    08:00 -11°C° 0.1 mm 6 mps 733 mmHg 87%
    09:00 -11°C° 0 mm 6 mps 734 mmHg 85%
    10:00 -10°C° 0 mm 6 mps 734 mmHg 84%
    11:00 -9°C° 0 mm 6 mps 735 mmHg 82%
    12:00 -9°C° 0 mm 6 mps 735 mmHg 81%
    13:00 -9°C° 0 mm 6 mps 736 mmHg 81%
    14:00 -8°C° 0 mm 5 mps 736 mmHg 80%
    15:00 -8°C° 0 mm 5 mps 737 mmHg 81%
    16:00 -10°C° 0 mm 5 mps 737 mmHg 82%
    17:00 -10°C° 0 mm 5 mps 737 mmHg 84%
    18:00 -11°C° 0 mm 5 mps 738 mmHg 84%
    19:00 -11°C° 0 mm 5 mps 738 mmHg 84%
    20:00 -11°C° 0 mm 5 mps 739 mmHg 84%
    21:00 -10°C° 0 mm 4 mps 739 mmHg 84%
    22:00 -11°C° 0 mm 4 mps 739 mmHg 84%
    23:00 -11°C° 0 mm 4 mps 739 mmHg 85%

    24 February, Sunday

    Time Temperature Precipitation Wind Pressure Humidity
    00:00 -11°C° 0 mm 4 mps 739 mmHg 85%
    01:00 -11°C° 0 mm 4 mps 738 mmHg 86%
    02:00 -11°C° 0 mm 4 mps 738 mmHg 86%
    03:00 -11°C° 0 mm 4 mps 738 mmHg 86%
    04:00 -11°C° 0 mm 4 mps 738 mmHg 86%
    05:00 -11°C° 0 mm 4 mps 738 mmHg 86%
    06:00 -11°C° 0.1 mm 4 mps 738 mmHg 86%
    07:00 -10°C° 0.1 mm 4 mps 739 mmHg 85%
    08:00 -10°C° 0.1 mm 4 mps 739 mmHg 85%
    09:00 -9°C° 0 mm 4 mps 739 mmHg 83%
    10:00 -8°C° 0 mm 4 mps 739 mmHg 81%
    11:00 -7°C° 0 mm 4 mps 739 mmHg 80%
    12:00 -5°C° 0 mm 4 mps 739 mmHg 80%
    13:00 -5°C° 0 mm 4 mps 739 mmHg 80%
    14:00 -4°C° 0 mm 4 mps 739 mmHg 81%
    15:00 -5°C° 0 mm 4 mps 739 mmHg 83%
    16:00 -7°C° 0 mm 4 mps 739 mmHg 85%
    17:00 -7°C° 0 mm 4 mps 739 mmHg 86%
    18:00 -7°C° 0.1 mm 4 mps 739 mmHg 87%
    19:00 -8°C° 0.1 mm 4 mps 739 mmHg 88%
    20:00 -8°C° 0.1 mm 4 mps 740 mmHg 88%
    21:00 -8°C° 0.1 mm 4 mps 740 mmHg 89%
    22:00 -8°C° 0.1 mm 4 mps 739 mmHg 89%
    23:00 -8°C° 0.1 mm 4 mps 739 mmHg 89%

    25 February, Monday

    Time Temperature Precipitation Wind Pressure Humidity
    00:00 -8°C° 0 mm 4 mps 739 mmHg 90%
    01:00 -8°C° 0 mm 4 mps 739 mmHg 90%
    02:00 -7°C° 0 mm 3 mps 739 mmHg 91%
    03:00 -8°C° 0 mm 4 mps 739 mmHg 91%
    04:00 -8°C° 0 mm 4 mps 739 mmHg 90%
    05:00 -8°C° 0 mm 4 mps 738 mmHg 90%
    06:00 -8°C° 0 mm 4 mps 738 mmHg 89%
    07:00 -8°C° 0 mm 4 mps 738 mmHg 88%
    08:00 -7°C° 0 mm 4 mps 739 mmHg 86%
    09:00 -5°C° 0 mm 4 mps 738 mmHg 84%
    10:00 -4°C° 0 mm 4 mps 738 mmHg 81%
    11:00 -4°C° 0 mm 5 mps 738 mmHg 79%
    12:00 -4°C° 0 mm 5 mps 737 mmHg 79%
    13:00 -4°C° 0 mm 5 mps 736 mmHg 80%
    14:00 -2°C° 0 mm 5 mps 736 mmHg 81%
    15:00 -4°C° 0 mm 5 mps 735 mmHg 83%
    16:00 -5°C° 0 mm 5 mps 735 mmHg 84%
    17:00 -6°C° 0 mm 5 mps 734 mmHg 86%
    18:00 -6°C° 0 mm 5 mps 734 mmHg 87%
    19:00 -7°C° 0 mm 5 mps 734 mmHg 88%
    20:00 -7°C° 0 mm 5 mps 733 mmHg 89%
    21:00 -7°C° 0 mm 5 mps 733 mmHg 89%
    22:00 -7°C° 0 mm 5 mps 732 mmHg 88%
    23:00 -8°C° 0 mm 5 mps 732 mmHg 88%
    Show more